This is the latest recevied weather packets stored in our database for station/object KF7SOJ. If no packets are shown the sender has not sent any weather packets the latest 10 day(s).
| Time | Temp. | Humidity | Pressure | Rain* | Wind** | Luminosity | Snow |
|---|---|---|---|---|---|---|---|
| 1777808883 | 7.78° C | 77% | 931.6 hPa | 0 mm | - | 1 W/m² | - |
| 1777807370 | 8.89° C | 73% | 931.5 hPa | 0 mm | - | 0 W/m² | - |
| 1777805852 | 8.89° C | 68% | 931.9 hPa | 0 mm | - | 0 W/m² | - |
| 1777804641 | 9.44° C | 65% | 932.3 hPa | 0 mm | - | 0 W/m² | - |
| 1777804340 | 9.44° C | 64% | 932.2 hPa | 0 mm | - | 0 W/m² | - |
| 1777804036 | 9.44° C | 64% | 932.3 hPa | 0 mm | - | 0 W/m² | - |
| 1777803733 | 9.44° C | 64% | 932.4 hPa | 0 mm | - | 0 W/m² | - |
| 1777803126 | 9.44° C | 64% | 932.3 hPa | 0 mm | - | 0 W/m² | - |
| 1777802823 | 8.89° C | 66% | 932.3 hPa | 0 mm | - | 0 W/m² | - |
| 1777802521 | 9.44° C | 64% | 932.2 hPa | 0 mm | - | 0 W/m² | - |
| 1777802219 | 9.44° C | 64% | 932 hPa | 0 mm | - | 0 W/m² | - |
| 1777801917 | 9.44° C | 64% | 931.7 hPa | 0 mm | - | 0 W/m² | - |
| 1777801007 | 10° C | 61% | 931.8 hPa | 0 mm | - | 0 W/m² | - |
| 1777800705 | 10° C | 61% | 932.1 hPa | 0 mm | - | 0 W/m² | - |
| 1777800404 | 10° C | 60% | 931.8 hPa | 0 mm | - | 0 W/m² | - |
| 1777800102 | 10° C | 60% | 931.8 hPa | 0 mm | - | 0 W/m² | - |
| 1777799797 | 10° C | 60% | 932 hPa | 0 mm | - | 0 W/m² | - |
| 1777799495 | 10° C | 60% | 931.9 hPa | 0 mm | - | 0 W/m² | - |
| 1777799190 | 10° C | 60% | 932 hPa | 0 mm | - | 0 W/m² | - |
| 1777798886 | 10° C | 60% | 931.8 hPa | 0 mm | - | 0 W/m² | - |
| 1777798582 | 10° C | 60% | 931.8 hPa | 0 mm | - | 0 W/m² | - |
| 1777798279 | 10.56° C | 59% | 931.8 hPa | 0 mm | - | 0 W/m² | - |
| 1777797976 | 10° C | 60% | 931.8 hPa | 0 mm | - | 0 W/m² | - |
| 1777797674 | 10.56° C | 59% | 931.7 hPa | 0 mm | - | 0 W/m² | - |
| 1777797371 | 10° C | 60% | 931.8 hPa | 0 mm | - | 0 W/m² | - |
* Rain latest hour (hover to see other rain measurements)
** Current wind speed in m/s (hover to see current wind gust speed)